www.pogodaiklimat.ru

Погода и климат >> Архив погоды >> Пакистан >> Бахавалпур


ПОГОДА в Бахавалпуре

  • Прогноз погоды в Бахавалпуре
  • Монитор погоды в Бахавалпуре

АРХИВ ПОГОДЫ в Бахавалпуре

Время (UTC), дата Ветер
(напр.,м/с)
 
Видим.   Явления Облачность Т
(С)
Тd
(С)
f
(%)
Тe
(С)
Тes
(С)
Комфортность P
(гПа)
Po
(гПа)
Тmin
(С)
Tmax
(С)
R
(мм)
R24
(мм)
S
(см)
21 17.05 штиль 0 2000 м дым 4/0
[Ac trans]
+23.5 +19.6 79 +29 +29 душно 1005.6 1000.0
00 18.05 штиль 0 2000 м дым 4/0
[Ac trans]
+22.0 +18.9 83 +27 +27 душно 1005.2 992.5
03 18.05 ЮВ 1 2000 м дым ясно +25.5 +20.5 74 +32 +40 очень
душно
1007.3 994.8 +21.5
06 18.05 штиль 0 4000 м дым ясно +31.0 +21.4 57 +39 +66 опасность
солнечного
удара
1007.8 995.1
09 18.05 штиль 0 4000 м мгла 5/0
[Ac trans]
+34.0 +18.9 41 +39 +56 опасность
солнечного
удара
1006.9 1000.0
12 18.05 штиль 0 4000 м мгла 4/0
[Ac trans]
+34.5 +21.4 47 +42 +47 опасность
перегрева
1004.5 992.5 +35.1
15 18.05 СВ 1 2000 м дым 4/0
[Ac trans]
+29.0 +19.9 58 +35 +35 очень
душно
1005.7 1000.0
18 18.05 штиль 0 2000 м дым 4/0
[Ac trans]
+28.0 +19.9 61 +34 +34 очень
душно
1006.2 1000.0
21 18.05 СВ 1 2000 м дым 4/0
[Ac trans]
+26.5 +21.3 73 +34 +34 очень
душно
1004.9 1000.0
00 19.05 штиль 0 1000 м дым ясно +25.0 +20.5 76 +31 +31 очень
душно
1004.5 992.0
03 19.05 ЮВ 1 2000 м дым ясно +29.0 +19.1 55 +34 +43 очень
душно
1005.3 993.0 +23.9
06 19.05 ЮВ 2 2000 м мгла ясно +36.0 +17.7 34 +39 +59 опасность
солнечного
удара
1005.5 1000.0
09 19.05 ЮЗ 1 4000 м мгла ясно +39.0 +16.1 26 +41 +63 опасность
перегрева
1004.7 1000.0
12 19.05 штиль 0 4000 м мгла 6/3 1200 м
[Sc Ac trans]
+37.5 +18.8 34 +42 +45 опасность
перегрева
1002.5 990.5 +39.1
15 19.05 штиль 0 2000 м дым 4/0
[Ac trans]
+34.0 +22.5 51 +43 +43 опасность
перегрева
1003.2 1000.0
18 19.05 штиль 0 2000 м дым 3/0
[Ac trans]
+31.0 +21.4 57 +39 +39 очень
душно
1005.3 1000.0
21 19.05 штиль 0 2000 м дым 3/0
[Ac trans]
+28.0 +20.5 64 +35 +35 очень
душно
1004.5 1000.0
00 20.05 СВ 1 1000 м дым 3/0
[Ac trans]
+25.0 +18.8 68 +30 +30 душно 1006.5 994.0
03 20.05 С 4 2000 м дым 3/0
[Ac trans]
+27.0 +18.5 60 +32 +35 очень
душно
1008.5 996.0 +24.2
06 20.05 С 2 2000 м мгла ясно +31.5 +17.5 43 +35 +55 опасность
солнечного
удара
1008.1 1000.0
09 20.05 С 2 4000 м мгла ясно +36.0 +18.7 36 +40 +60 опасность
солнечного
удара
1007.0 1000.0
12 20.05 СВ 2 4000 м мгла 1/0
[Ac trans]
+36.5 +19.4 37 +42 +45 опасность
перегрева
1004.4 992.4 +37.0
15 20.05 СВ 2 2000 м мгла 1/0
[Ac trans]
+33.0 +20.4 48 +40 +40 очень
душно
1005.5 1000.0
18 20.05 штиль 0 2000 м дым 4/0
[Ac trans]
+30.0 +21.1 59 +38 +38 очень
душно
1006.6 1000.0
21 20.05 ЮВ 1 2000 м дым 4/0
[Ac trans]
+28.5 +21.9 67 +37 +37 очень
душно
1005.8 1000.0
00 21.05 штиль 0 1000 м дым 4/0
[Ac trans]
+27.0 +19.3 63 +33 +33 очень
душно
1005.6 993.1
03 21.05 штиль 0 2000 м дым 1/0
[Ac trans]
+29.5 +19.7 56 +36 +44 очень
душно
1006.5 994.2 +25.9
06 21.05 СВ 1 2000 м мгла 1/0
[Ac trans]
+37.0 +19.1 35 +42 +65 опасность
перегрева
1006.9 1000.0
09 21.05 штиль 0 4000 м мгла 1/1 1200 м
[Sc diur, vesp]
+40.0 +19.3 30 +44 +66 опасность
перегрева
1004.6 1000.0
12 21.05 штиль 0 4000 м мгла 6/3 1200 м
[Sc diur, vesp Ac trans]
+39.5 +19.6 32 +45 +47 опасность
перегрева
1002.1 990.3 +41.3
15 21.05 СЗ 1 2000 м мгла 8/3 1200 м
[Sc Ac trans]
+34.5 +19.6 42 +40 +40 очень
душно
1003.0 1000.0
18 21.05 штиль 0 2000 м мгла 8/3 1200 м
[Sc Ac trans]
+30.5 +17.2 45 +34 +34 очень
душно
1004.1 991.4
21 21.05 штиль 0 2000 м дым 8/3 1200 м
[Sc Ac trans]
+28.0 +16.9 51 +32 +32 душно 1003.6 1000.0
00 22.05 С 2 2000 м дым 8/3 1200 м
[Sc Ac trans]
+26.0 +17.3 59 +30 +30 душно 1003.3 990.9
03 22.05 штиль 0 2000 м дым 4/0
[Ac trans]
+30.0 +19.4 53 +36 +42 очень
душно
1003.7 991.5 +25.1
06 22.05 ЮЗ 1 2000 м мгла 5/1 1200 м
[Sc Ac trans]
+34.5 +19.6 42 +40 +53 опасность
солнечного
удара
1003.9 1000.0
09 22.05 ЮЗ 2 4000 м мгла ясно +39.5 +18.6 30 +43 +61 опасность
перегрева
1002.1 1000.0
12 22.05 З 2 4000 м мгла 1/1 1200 м
[Sc diur, vesp]
+39.0 +16.8 27 +41 +45 опасность
перегрева
999.6 987.8 +40.3
15 22.05 штиль 0 2000 м мгла 8/3 1200 м
[Sc Ac trans]
+35.0 +18.3 37 +39 +39 очень
душно
1000.2 1000.0
18 22.05 СВ 1 2000 м дым 6/3 1200 м
[Sc Ac trans]
+30.0 +18.5 50 +35 +35 очень
душно
1002.6 1000.0
21 22.05 штиль 0 2000 м дым {гроза, морось} 8/4 1200 м
[Sc Ac trans]
+28.0 +18.8 57 +33 +33 очень
душно
1002.2 1000.0 0.0
00 23.05 С 1 2000 м дым 8/4 1200 м
[Sc Ac trans]
+26.0 +19.1 66 +31 +31 очень
душно
1002.1 989.7
03 23.05 штиль 0 2000 м дым 8/4 1200 м
[Sc Ac trans]
+29.0 +19.9 58 +35 +38 очень
душно
1003.1 990.9 +25.7
06 23.05 штиль 0 4000 м мгла 8/4 1200 м
[Sc Ac trans]
+32.5 +19.8 47 +38 +48 очень
душно
1003.4 990.8
09 23.05 ЮВ 1 4000 м мгла 8/4 1200 м
[Sc Ac trans]
+37.0 +18.1 33 +41 +49 опасность
перегрева
1002.0 1000.0
12 23.05 штиль 0 4000 м мгла 5/1 1200 м
[Sc Ac trans]
+38.0 +20.4 36 +44 +47 опасность
перегрева
999.7 987.8 +38.9
15 23.05 СВ 1 2000 м мгла 3/0
[Ac trans]
+34.5 +19.6 42 +40 +40 очень
душно
999.7 1000.0
18 23.05 СЗ 8 500 м гроза, пыльная буря 10/5 900 м
[Sc Ac As]
+30.5 +17.2 45 +34 +34 очень
душно
1003.3 1000.0
21 23.05 СВ 2 2000 м гроза, ливневой дождь 10/5 900 м
[Sc Ac As]
+24.5 +20.7 79 +30 +30 очень
душно
1003.1 990.2 3
00 24.05 С 2 2000 м дым {гроза, морось} 8/4 1200 м
[Sc Ac trans]
+23.5 +19.6 79 +29 +29 душно 1002.0 989.5 0.0
03 24.05 С 2 2000 м дым ясно +25.5 +21.0 76 +32 +39 очень
душно
1004.6 992.2 +22.8
06 24.05 ЮВ 1 4000 м дым ясно +31.0 +21.4 57 +39 +64 опасность
солнечного
удара
1005.7 1000.0
09 24.05 СВ 1 4000 м мгла ясно +35.0 +20.5 43 +42 +65 опасность
перегрева
1004.5 1000.0
12 24.05 штиль 0 4000 м мгла ясно +35.0 +20.2 42 +41 +47 опасность
перегрева
1003.0 991.0 +36.0
15 24.05 штиль 0 2000 м дым ясно +31.0 +21.4 57 +39 +39 очень
душно
1003.4 1000.0
18 24.05 штиль 0 2000 м дым ясно +29.5 +20.5 58 +36 +36 очень
душно
1004.5 1000.0

 

Местоположение метеостанции Бахавалпур (Пакистан): широта 29.40 долгота 71.78 высота над уровнем моря 113 м.

В архиве по умолчанию представлена погода в Бахавалпуре за последнюю неделю. Архивные данные за месяц целиком и за предыдущие месяцы, начиная с января 2011 года, Вы можете получить, выбрав интересующий диапазон дат из раскрывающегося списка и нажав кнопку "Ввод!".


*Определитесь, кто Вы:
робот инопланетянин человек

Внимание! Время в таблицах - всемирное. Для получения местного времени необходимо прибавить поправку, которая равна 5 ч.

Смотрите также архив погоды в соседних городах и на ближайших метеорологических станциях:

Погода в Мултане (Пакистан) (95 км)
Погода в Ханевале (Пакистан) (101 км)
Погода в Дера Гази Хан (Пакистан) (133 км)
Погода в Ханпуре (Пакистан) (136 км)
Погода в Кот Адду (Пакистан) (142 км)
Погода в Бахавалнагаре (Пакистан) (155 км)
Погода на Авиабазе Raifiqui (Пакистан) (159 км)
Погода в Рахим Яр Хан (Пакистан) (178 км)
Погода в Сахивале (Пакистан) (184 км)
Погода в Тоба Тек Сингх (Пакистан) (188 км)

Пояснения к столбцам:

Ветер - указаны скорость ветра в м/с - средняя за 10 мин, порывы в срок и между сроками (в фигурных скобках) и направление, откуда дует ветер: С - северный, СВ - северо-восточный, В - восточный, ЮВ - юго-восточный, Ю - южный, ЮЗ - юго-западный, З - западный, СЗ - северо-западный.
Видимость - горизонтальная дальность видимости в метрах или километрах. При видимости от 1 до 10 км при отсутствии осадков обычно наблюдается дымка, при ухудшении видимости до 1 км и менее - туман. В сухую погоду видимость может ухудшаться дымом, пылью или мглою.
Явления - указаны атмосферные явления, наблюдавшиеся в срок или в последний час перед сроком; фигурными скобками обозначены явления, наблюдавшиеся между сроками (за 1-3 часа до срока); квадратными скобками обозначены град или гололедные отложения с указанием их диаметра в мм.
Облачность - указаны через наклонную черту общая и нижняя облачность в баллах и высота нижней границы облаков в метрах; квадратными скобками обозначены формы облаков: Ci - перистые, Cs - перисто-слоистые, Cc - перисто-кучевые, Ac - высококучевые, As - высокослоистые, Sc - слоисто-кучевые, Ns - слоисто-дождевые, Cu - кучевые, Cb - кучево-дождевые. Подробнее классификацию облаков см. в Атласе облаков (PDF).
T - Температура воздуха - температура, измеренная на высоте 2 м над землей.
Td - Температура точки росы - температура, при понижении до которой содержащийся в воздухе водяной пар достигнет насыщения.
f - Относительная влажность воздуха - влажноcть воздуха, измеренная на высоте 2 м над землей.
Te - Эффективная температура - температура, которую ощущает одетый по сезону человек в тени. Характеристика душности погоды. При расчете учитывается влияние влажности воздуха и скорости ветра на теплоощущения человека.
Tes - Эффективная температура на солнце - температура, которую ощущает человек, с поправкой на солнечный нагрев. Характеристика знойности погоды. Зависит от высоты солнца над горизонтом, облачности и скорости ветра. Ночью, в пасмурную погоду, а также при ветре 12 м/с и более поправка равна нулю.
P - Атмосферное давление - приведенное к уровню моря атмосферное давление.
Po - Атмосферное давление - измеренное на уровне метеостанции атмосферное давление.
Tmin - Минимальная температура - минимум температуры воздуха на высоте 2 м над землей.
Tmax - Максимальная температура - максимум температуры воздуха на высоте 2 м над землей.
R - Количество осадков - Количество выпавших осадков за период времени, мм. При наведении курсора мыши на число - период времени, за который выпало указанное количество осадков.
R24 - Количество осадков - Количество выпавших осадков за 24 часа, мм.
S - Снежный покров - Высота снежного покрова, см. При наведении курсора мыши на число - состояние снежного покрова и степень покрытия местности в баллах.